Location: Unspecified
(0.0000°N, 0.0000°E)
Time: 03:40:00
(UTC+00:00)

SRMSAT - Pass Details

Date: 17 July 2019
Orbit: 848 x 866 km, 20.0° (Epoch: 16 August)

Event Time Altitude Azimuth Distance (km) Brightness Sun altitude
Rises 05:38:06 0° 301° (WNW) 3,389 ? -6.5°
Reaches altitude 10° 05:40:45 10° 307° (NW) 2,454 ? -5.9°
Maximum altitude 05:46:25 47° 21° (NNE) 1,097 ? -4.6°
Drops below altitude 10° 05:52:05 10° 94° (E) 2,461 ? -3.3°
Sets 05:54:44 0° 99° (E) 3,399 ? -2.7°
